Temp
78 83 82 84 82 80 81 79 80 80 82 84 86 86 84 87 87 87 84 83 82 82 83 84 83 83 83 83 82 82 82 82 82 82 82 82 82 81 81 81 81 81 81
80 80 82 81 79 82 83 80 81 81 81 84 83 85 84 86 85 86 85 83 81 82 83 83 83 83 83 83 83 83 82 82 82 82 81 81 81 81 81 81 81 81 80
75 76 78 81 79 80 82 81 82 81 80 82 82 85 84 84 86 85 85 85 84 82 82 83 83 83 82 83 83 83 82 82 81 81 81 81 81 81 80 80 80 81 80
77 76 79 82 78 80 83 81 78 77 77 77 81 81 84 83 85 86 86 86 84 88 82 82 82 82 83 83 83 83 82 81 81 81 81 81 80 80 80 80 80 80 80
82 79 80 82 82 83 80 80 77 77 78 79 79 83 84 83 85 90 87 88 86 86 86 82 82 82 83 84 83 83 82 81 81 81 81 81 80 80 80 80 80 80 80
79 81 79 79 82 85 80 79 79 82 81 78 83 85 83 84 83 83 85 89 87 88 89 85 82 82 81 83 83 83 83 82 81 81 80 80 80 80 80 80 80 80 79
78 78 81 82 81 82 84 84 82 81 81 80 79 78 80 84 78 84 85 82 88 88 88 85 84 84 84 81 82 82 83 83 82 82 81 80 80 79 79 79 79 79 79
90 89 84 81 77 82 82 81 82 81 82 82 78 79 75 78 72 76 81 86 89 87 87 87 85 84 84 83 82 82 82 83 83 82 82 80 80 79 79 78 78 78 79
90 87 87 84 82 80 81 81 81 79 79 82 82 78 74 72 78 83 84 85 85 78 72 71 81 85 85 83 82 83 81 80 82 83 82 81 80 79 79 78 78 78 78
87 88 85 83 82 81 79 80 86 80 80 79 81 86 81 79 74 72 80 81 73 74 73 72 74 80 85 87 84 84 82 79 80 82 82 82 80 80 79 79 78 78 78
87 86 86 84 83 80 81 80 80 79 79 79 80 75 79 76 78 72 71 76 70 70 72 73 73 79 89 90 87 85 81 79 79 80 81 81 81 81 80 80 79 79 78
82 84 81 82 83 81 81 81 81 79 78 79 79 77 77 75 75 74 72 75 78 72 71 73 78 75 78 87 85 84 80 78 77 78 78 80 80 81 82 82 81 80 80
79 79 81 79 80 81 81 80 79 79 78 79 79 79 80 77 79 78 74 74 76 79 78 81 76 73 73 72 73 80 80 77 76 75 76 76 78 79 80 80 81 81 81
79 80 80 81 81 81 82 80 81 78 78 79 80 79 77 79 81 80 78 73 72 74 77 78 74 73 73 71 72 74 80 76 75 74 74 74 75 76 77 78 79 79 80
80 79 79 79 80 78 79 80 81 80 79 79 77 78 78 77 79 78 76 76 72 68 70 76 75 75 72 69 72 71 71 75 74 74 73 72 73 74 75 76 76 76 76
77 77 77 78 77 78 78 78 79 80 77 79 79 77 76 77 76 76 76 76 74 73 70 77 76 76 74 73 74 74 79 78 74 73 72 71 72 72 73 74 74 74 74
76 75 75 75 76 76 76 76 76 77 77 78 79 78 77 78 77 77 75 77 77 74 72 77 78 78 73 73 75 78 80 84 82 73 72 71 70 71 72 72 72 72 73
75 74 75 75 74 75 75 74 74 76 75 75 77 77 78 81 77 76 75 75 74 76 72 73 76 76 76 76 77 77 83 88 85 82 72 70 69 69 69 70 70 70 69
74 76 75 74 74 74 74 74 74 74 75 75 76 75 76 77 76 76 75 74 74 74 74 74 74 77 78 77 75 77 77 80 84 82 70 69 69 69 68 68 67 66 65
74 74 75 74 74 75 72 71 71 71 72 73 73 74 75 75 75 76 75 74 74 73 73 72 71 73 76 77 75 73 74 78 78 86 82 73 72 70 69 67 67 66 63
73 74 74 73 74 75 72 68 68 69 70 71 72 73 75 76 75 74 76 75 75 72 72 72 71 71 71 71 71 73 73 75 78 76 72 72 70 75 75 68 71 69 66
71 71 70 70 69 72 65 65 66 67 69 70 71 73 74 75 76 74 71 71 72 72 71 71 71 70 71 71 72 72 73 70 71 78 74 73 71 69 70 69 71 69 66
70 69 69 70 69 66 63 63 64 65 68 71 72 73 75 81 74 75 74 72 70 68 68 71 71 71 71 72 73 72 72 70 71 75 73 73 70 67 67 69 68 68 67
68 68 71 71 70 66 62 61 62 69 71 73 74 73 73 74 66 66 71 73 74 75 73 72 72 72 73 73 72 71 71 72 74 76 73 71 76 73 70 69 69 71 68
68 69 70 70 69 67 60 60 61 69 71 70 72 70 70 69 61 60 67 71 72 73 74 67 66 68 67 67 69 71 69 69 71 72 76 71 74 74 75 78 80 66 65
67 70 70 71 67 69 59 59 60 68 66 66 69 72 61 61 57 57 62 67 68 69 70 73 73 72 69 71 66 70 71 68 68 69 71 69 71 70 69 76 77 75 72
MSLP
1016.04 1015.60 1015.81 1015.63 1015.86 1016.03 1016.16 1016.20 1016.23 1016.28 1016.18 1016.11 1015.92 1015.83 1015.84 1015.70 1015.50 1015.38 1016.18 1016.88 1016.90 1017.03 1016.82 1017.04 1017.50 1017.88 1018.15 1018.44 1018.76 1019.00 1019.20 1019.39 1019.60 1019.89 1020.11 1020.32 1020.58 1020.76 1020.92 1021.10 1021.22 1021.34 1021.42
1015.65 1015.88 1015.99 1015.96 1015.77 1015.78 1015.89 1016.13 1016.16 1016.12 1016.18 1015.95 1015.84 1015.80 1015.84 1015.72 1015.57 1015.57 1015.91 1016.10 1016.18 1016.56 1016.59 1016.74 1016.96 1017.28 1017.55 1017.82 1018.07 1018.31 1018.58 1018.79 1019.04 1019.30 1019.59 1019.88 1020.16 1020.44 1020.65 1020.77 1020.93 1021.05 1021.18
1015.52 1015.90 1016.21 1016.02 1015.63 1015.73 1015.76 1015.89 1015.81 1015.83 1016.07 1015.77 1015.69 1015.57 1015.65 1015.63 1015.39 1015.38 1015.30 1015.38 1015.84 1016.18 1016.27 1016.29 1016.33 1016.60 1016.89 1017.16 1017.41 1017.71 1017.96 1018.22 1018.49 1018.73 1019.01 1019.37 1019.67 1020.01 1020.31 1020.43 1020.58 1020.69 1020.78
1015.16 1015.75 1015.92 1015.80 1015.58 1015.67 1015.70 1015.68 1015.84 1015.86 1015.82 1015.68 1015.62 1015.42 1015.06 1015.13 1015.03 1015.04 1014.82 1014.83 1015.10 1015.22 1015.70 1016.12 1016.10 1016.26 1016.48 1016.66 1016.93 1017.09 1017.36 1017.63 1017.88 1018.17 1018.43 1018.75 1019.05 1019.36 1019.67 1019.91 1020.13 1020.31 1020.44
1014.71 1015.01 1015.31 1015.46 1015.42 1015.32 1015.72 1015.61 1015.53 1015.56 1015.56 1015.38 1015.40 1015.02 1014.82 1014.72 1014.60 1014.20 1014.33 1014.38 1014.48 1014.65 1014.68 1014.99 1015.34 1015.60 1015.70 1015.92 1016.18 1016.43 1016.74 1016.97 1017.17 1017.58 1017.88 1018.16 1018.48 1018.76 1019.05 1019.35 1019.56 1019.79 1020.00
1014.78 1014.66 1014.91 1015.07 1014.98 1014.80 1015.26 1015.37 1015.39 1015.26 1015.13 1015.31 1015.23 1014.86 1014.54 1014.17 1014.01 1013.84 1013.82 1013.63 1013.81 1013.91 1013.92 1014.28 1014.83 1015.31 1015.29 1015.22 1015.42 1015.81 1016.07 1016.32 1016.60 1016.95 1017.32 1017.58 1017.91 1018.19 1018.49 1018.79 1019.03 1019.27 1019.50
1014.68 1014.33 1014.26 1014.69 1014.60 1014.47 1014.55 1014.93 1015.01 1014.91 1014.71 1014.69 1015.11 1014.69 1014.04 1013.60 1013.39 1013.46 1013.27 1013.33 1013.23 1013.22 1013.42 1013.50 1013.83 1014.43 1014.69 1014.77 1014.88 1014.99 1015.37 1015.77 1016.07 1016.29 1016.59 1016.92 1017.24 1017.58 1017.88 1018.20 1018.51 1018.78 1019.01
1013.30 1013.40 1014.06 1014.29 1014.10 1013.85 1014.25 1014.71 1014.75 1014.62 1014.42 1014.15 1014.37 1014.24 1013.82 1014.01 1013.54 1013.60 1013.49 1012.91 1012.86 1012.84 1013.05 1013.05 1014.00 1013.79 1013.61 1014.07 1014.16 1014.22 1014.61 1014.96 1015.31 1015.61 1015.97 1016.34 1016.71 1016.99 1017.36 1017.64 1017.90 1018.20 1018.47
1012.37 1013.14 1013.63 1013.83 1013.89 1013.78 1014.28 1014.50 1014.65 1014.71 1014.44 1013.98 1013.94 1014.01 1014.17 1013.97 1013.47 1012.69 1012.61 1012.51 1012.47 1013.03 1013.68 1014.30 1013.69 1013.06 1012.58 1013.00 1013.35 1013.54 1013.84 1014.10 1014.53 1014.89 1015.18 1015.57 1016.06 1016.37 1016.67 1017.02 1017.32 1017.57 1017.88
1011.87 1012.53 1013.06 1013.46 1013.85 1014.20 1014.51 1014.57 1014.39 1014.41 1014.30 1014.08 1013.75 1013.73 1013.86 1014.18 1014.13 1013.89 1013.11 1012.89 1012.55 1012.52 1012.51 1012.67 1013.06 1012.92 1012.18 1012.22 1012.52 1012.41 1012.58 1013.32 1013.95 1014.36 1014.53 1014.89 1015.27 1015.69 1016.02 1016.30 1016.61 1016.89 1017.19
1012.08 1012.22 1012.72 1013.44 1013.93 1014.24 1014.20 1014.29 1014.19 1014.36 1014.32 1014.29 1014.09 1013.96 1014.07 1014.21 1014.02 1014.18 1013.87 1013.62 1014.05 1012.99 1012.49 1012.96 1011.93 1012.33 1011.49 1011.62 1011.56 1011.59 1011.65 1012.22 1012.80 1013.48 1013.96 1014.22 1014.57 1014.94 1015.30 1015.60 1015.84 1016.15 1016.44
1012.40 1012.85 1013.41 1013.68 1013.60 1013.93 1014.17 1014.11 1014.19 1014.21 1014.13 1014.04 1013.91 1013.88 1013.98 1014.04 1013.84 1013.85 1013.97 1013.54 1013.21 1013.34 1012.85 1013.05 1013.32 1013.03 1013.15 1011.05 1010.89 1011.10 1011.32 1011.68 1012.04 1012.58 1013.14 1013.67 1013.99 1014.32 1014.63 1014.92 1015.19 1015.37 1015.71
1013.40 1013.90 1014.01 1013.79 1013.75 1013.79 1013.85 1013.88 1013.94 1013.84 1013.89 1013.78 1013.53 1013.52 1013.25 1013.30 1013.33 1013.33 1013.56 1013.51 1013.21 1012.47 1012.50 1012.12 1012.57 1011.77 1011.46 1012.97 1013.44 1011.97 1011.08 1011.38 1011.67 1011.94 1012.45 1013.03 1013.47 1013.74 1013.98 1014.27 1014.46 1014.68 1014.98
1014.20 1014.19 1014.14 1013.99 1013.93 1013.59 1013.75 1013.74 1013.61 1013.53 1013.36 1013.46 1013.18 1013.12 1013.09 1012.81 1012.67 1012.78 1013.06 1013.32 1013.32 1012.90 1012.39 1011.86 1012.63 1012.82 1012.20 1010.81 1012.10 1012.87 1011.98 1011.38 1011.39 1011.54 1011.77 1012.30 1012.74 1012.99 1013.29 1013.62 1013.85 1014.07 1014.35
1014.51 1014.60 1014.49 1014.37 1014.26 1014.10 1014.03 1013.87 1013.55 1013.32 1013.30 1013.20 1013.07 1012.89 1012.74 1012.62 1012.52 1012.29 1012.40 1012.63 1013.13 1013.15 1012.38 1011.73 1011.51 1011.56 1011.63 1012.08 1012.44 1011.76 1012.44 1011.31 1010.80 1011.23 1011.31 1011.44 1011.84 1012.27 1012.55 1012.84 1013.17 1013.40 1013.59
1014.96 1014.96 1014.87 1014.73 1014.53 1014.31 1014.07 1013.93 1013.64 1013.40 1013.48 1013.16 1012.86 1012.62 1012.47 1012.27 1012.06 1011.98 1011.96 1012.04 1012.32 1012.73 1012.33 1011.21 1010.79 1010.81 1011.23 1011.35 1010.83 1011.24 1010.77 1009.92 1010.08 1010.76 1010.76 1011.02 1011.19 1011.48 1011.79 1012.03 1012.32 1012.63 1012.79
1015.27 1015.16 1015.05 1014.92 1014.69 1014.48 1014.24 1014.01 1013.82 1013.56 1013.23 1012.96 1012.65 1012.43 1012.19 1011.99 1011.87 1011.76 1011.60 1011.62 1011.89 1011.99 1011.89 1011.03 1010.91 1010.73 1011.10 1010.85 1010.62 1010.18 1009.74 1009.63 1009.58 1009.96 1009.77 1010.01 1010.34 1010.99 1011.37 1011.59 1011.88 1012.02 1012.09
1015.46 1015.29 1015.08 1014.98 1014.81 1014.61 1014.43 1014.24 1014.01 1013.75 1013.42 1013.11 1012.64 1012.32 1011.94 1011.58 1011.44 1011.47 1011.41 1011.37 1011.48 1011.35 1011.49 1011.08 1010.88 1010.70 1010.45 1010.74 1010.62 1010.09 1009.71 1008.97 1008.96 1008.80 1009.09 1009.38 1009.97 1010.53 1010.70 1010.77 1011.23 1011.63 1011.79
1015.52 1015.34 1015.13 1014.95 1014.80 1014.65 1014.49 1014.37 1014.15 1013.85 1013.61 1013.28 1012.83 1012.49 1012.12 1011.59 1011.30 1011.19 1011.09 1011.04 1010.98 1010.85 1010.93 1010.97 1010.43 1010.40 1010.15 1010.08 1009.94 1009.47 1008.94 1008.61 1008.46 1008.20 1008.87 1009.19 1009.54 1009.82 1010.17 1010.28 1010.34 1010.65 1010.87
1015.48 1015.34 1015.09 1014.84 1014.67 1014.56 1014.69 1014.78 1014.61 1014.32 1013.87 1013.40 1013.02 1012.59 1012.14 1011.75 1011.25 1010.94 1010.89 1010.75 1010.59 1010.61 1010.53 1010.60 1010.42 1010.09 1009.65 1009.44 1009.37 1009.19 1008.78 1008.36 1008.27 1008.16 1007.95 1008.67 1008.96 1009.10 1009.26 1009.40 1009.72 1010.07 1010.21
1015.69 1015.50 1015.25 1015.03 1014.88 1014.71 1015.16 1015.25 1015.06 1014.60 1013.99 1013.39 1013.02 1012.48 1011.91 1011.40 1011.11 1010.81 1010.42 1010.16 1010.28 1010.36 1010.52 1010.45 1010.23 1009.91 1009.50 1009.36 1009.24 1009.06 1008.90 1008.51 1008.15 1008.24 1008.53 1008.70 1008.68 1009.15 1008.79 1008.85 1009.17 1009.36 1009.28
1015.99 1015.85 1015.67 1015.50 1015.41 1015.39 1015.59 1015.43 1015.32 1014.79 1013.98 1013.29 1012.69 1012.19 1011.78 1011.32 1010.55 1010.40 1010.12 1009.97 1010.15 1010.23 1010.22 1010.25 1010.00 1009.73 1009.32 1009.27 1009.10 1009.02 1008.74 1008.53 1008.29 1007.59 1007.81 1008.22 1008.59 1008.32 1007.76 1007.31 1008.44 1009.02 1008.60
1015.89 1015.82 1015.65 1015.47 1015.38 1015.58 1015.82 1015.70 1015.33 1014.67 1013.82 1012.99 1012.27 1011.83 1011.40 1010.81 1010.55 1010.45 1010.23 1010.08 1009.89 1009.73 1009.71 1009.76 1009.66 1009.32 1009.16 1009.00 1008.90 1008.78 1008.47 1008.32 1008.05 1007.70 1007.98 1007.77 1007.88 1007.93 1007.94 1007.69 1007.27 1006.93 1007.91
1015.74 1015.55 1015.17 1015.08 1015.12 1015.69 1015.76 1015.56 1014.91 1014.00 1013.26 1012.50 1012.02 1011.62 1011.08 1010.77 1011.33 1011.11 1010.41 1009.94 1009.63 1009.28 1008.91 1009.04 1009.02 1008.83 1008.76 1008.56 1008.53 1008.30 1008.19 1008.01 1007.63 1007.39 1007.42 1007.58 1007.06 1007.16 1007.56 1007.10 1006.85 1006.10 1006.71
1015.84 1015.49 1015.16 1015.01 1015.17 1015.54 1015.62 1015.47 1014.96 1014.02 1013.33 1012.81 1012.24 1012.10 1011.78 1011.62 1011.59 1011.23 1010.71 1010.12 1009.55 1009.10 1008.69 1008.65 1008.45 1008.33 1008.14 1007.91 1007.90 1008.08 1007.90 1007.86 1007.41 1006.83 1006.37 1006.62 1006.50 1006.43 1006.13 1005.68 1005.13 1005.25 1005.23
1015.92 1015.50 1015.13 1014.94 1014.89 1014.97 1015.42 1015.35 1015.00 1014.34 1013.91 1013.57 1012.66 1012.05 1012.21 1012.19 1011.85 1011.63 1011.36 1010.69 1009.78 1009.31 1008.99 1008.57 1008.37 1007.94 1007.55 1007.34 1007.61 1008.19 1007.94 1007.92 1007.72 1007.20 1006.75 1006.76 1006.59 1006.63 1006.12 1005.07 1004.94 1005.33 1005.05
Wind_Speed
3 2 2 4 3 4 3 3 3 3 2 5 5 5 5 7 5 2 5 16 10 14 16 17 17 16 16 16 16 16 16 15 14 13 13 12 11 11 11 10 10 9 8
0 2 2 5 3 3 1 2 2 3 3 6 4 7 5 7 7 4 6 8 15 17 16 16 17 18 18 17 17 17 17 17 16 16 14 13 12 12 11 12 12 11 10
5 3 2 5 4 4 4 3 3 3 4 6 6 7 7 8 8 6 5 4 9 14 16 19 19 19 18 19 18 17 17 17 17 16 15 15 14 13 13 12 12 12 11
3 4 4 5 3 1 3 2 3 3 4 4 5 6 4 5 5 8 7 6 7 8 14 18 18 19 19 19 19 18 18 18 17 17 16 17 16 16 15 14 13 13 12
7 5 5 5 4 4 4 2 1 3 3 4 5 4 4 5 6 7 8 10 9 10 7 19 21 20 21 22 20 20 20 20 18 18 17 17 17 16 17 16 14 14 13
7 6 4 5 6 4 4 2 4 4 4 4 3 5 5 5 5 5 6 5 6 7 9 11 11 11 20 21 21 21 21 20 20 19 18 18 17 17 17 16 15 14 14
9 9 4 6 5 3 4 4 5 6 5 5 2 4 7 7 6 6 6 5 7 6 6 5 7 8 10 22 20 20 20 21 20 20 19 19 18 17 17 17 16 15 15
4 2 3 4 8 7 6 5 5 3 4 5 4 3 3 1 5 9 11 6 8 4 6 7 4 9 7 7 14 21 20 20 20 20 19 19 18 18 17 16 16 16 15
5 6 4 4 4 4 5 4 5 5 6 6 5 2 3 2 4 1 4 7 8 6 4 9 2 15 10 8 10 15 21 20 21 21 20 19 19 18 18 17 17 17 16
5 4 6 6 5 3 4 5 7 5 2 6 4 1 3 0 1 4 3 3 7 3 5 5 5 12 8 8 14 17 19 19 19 19 20 20 19 19 19 19 18 17 17
8 3 4 7 4 4 5 5 6 4 4 4 5 5 1 2 1 3 4 2 2 3 2 3 3 10 10 10 7 9 20 21 20 19 18 19 19 19 19 19 18 18 18
6 2 7 6 4 4 5 4 5 6 6 5 4 5 3 3 3 3 4 5 9 4 5 4 10 6 13 9 4 10 15 17 18 18 17 17 17 17 18 19 19 19 19
5 7 5 5 4 4 4 5 5 6 6 6 6 6 5 5 5 4 2 4 6 4 4 5 4 6 3 10 13 17 15 16 16 15 15 15 15 16 16 17 19 19 20
4 7 7 7 9 8 7 5 4 5 7 6 7 6 6 6 5 6 5 3 4 3 4 5 7 7 4 1 27 31 7 13 14 15 15 15 15 16 15 16 16 17 18
5 7 8 9 7 6 7 7 6 6 6 5 6 8 7 6 6 6 6 5 5 3 3 4 3 1 6 6 13 13 17 12 12 13 15 16 17 17 17 16 15 14 14
7 7 7 6 6 7 7 6 6 7 7 6 6 6 6 5 6 6 4 5 4 5 6 3 3 3 2 4 8 11 14 7 11 13 14 15 15 17 18 17 16 15 15
6 6 6 7 7 7 7 6 7 8 8 7 7 7 7 7 5 6 5 4 5 6 8 7 3 2 5 4 6 8 9 9 6 17 18 17 17 17 17 16 16 15 15
5 6 5 6 6 7 7 7 8 8 9 10 9 8 8 6 6 5 5 7 7 8 7 11 5 3 4 7 8 8 8 7 8 12 17 14 13 15 17 17 16 15 15
5 5 5 4 5 5 6 6 7 7 8 9 8 9 11 9 6 6 6 6 6 6 5 6 9 5 6 5 6 6 7 8 7 9 8 14 15 16 16 15 16 16 17
5 5 6 6 5 7 9 10 10 10 10 9 9 10 10 11 9 8 6 7 7 6 6 5 7 7 6 5 6 4 6 5 7 6 6 5 9 15 16 17 17 17 15
7 7 7 7 7 6 8 8 9 9 10 10 10 10 11 12 13 11 7 6 5 4 4 5 6 6 7 5 6 4 5 5 7 4 2 2 13 3 6 11 13 19 20
7 8 9 7 7 6 11 12 11 9 11 10 9 8 9 14 12 10 10 9 7 6 7 6 5 6 7 5 4 3 5 4 4 3 3 2 4 4 5 2 6 16 18
6 7 5 5 4 6 9 11 14 9 9 11 9 8 8 8 10 7 8 8 9 11 10 9 9 8 6 5 4 6 6 4 5 6 3 5 4 3 5 5 6 32 25
6 6 5 1 4 6 7 10 17 8 9 8 8 8 7 7 10 9 8 8 9 8 8 6 7 8 7 7 6 5 6 6 5 6 5 6 4 6 9 11 23 32 26
7 8 5 6 4 4 4 7 11 9 10 12 11 6 8 9 12 14 9 9 9 7 2 4 5 7 10 10 9 2 4 4 6 5 4 7 5 4 4 7 5 18 19
5 6 6 6 3 1 6 5 8 6 9 9 11 7 11 8 11 12 8 8 8 6 7 6 5 7 11 11 7 4 4 4 5 4 2 4 4 3 4 3 2 2 3
Wind_Direction
301 57 41 310 154 165 228 203 205 225 276 287 276 283 303 296 275 300 142 166 187 201 187 190 200 206 211 214 213 210 212 213 215 219 224 215 214 217 220 225 228 231 234
202 24 343 299 269 184 226 221 247 252 237 268 228 254 273 276 275 276 169 189 198 202 195 195 200 208 212 214 214 215 213 212 214 215 222 219 219 222 223 228 231 233 236
176 179 248 284 200 135 212 222 221 215 229 245 214 227 235 254 255 237 221 167 193 205 204 201 202 206 213 215 217 216 213 214 215 217 218 221 221 223 225 227 231 235 235
213 193 215 243 98 60 291 252 195 223 236 235 256 244 211 233 250 259 217 188 193 198 208 217 212 212 213 216 219 219 216 214 215 215 215 217 219 221 224 225 229 231 233
215 205 199 231 247 209 211 233 218 198 242 265 231 246 249 223 219 252 209 223 203 204 195 212 210 214 214 219 219 218 218 215 214 216 217 215 216 220 224 224 226 230 231
225 235 202 239 225 205 208 177 220 236 225 245 238 274 278 247 220 236 263 227 218 206 200 204 203 219 225 220 219 218 219 219 216 214 216 216 218 218 218 222 224 229 232
222 206 222 213 305 152 183 208 224 230 257 208 230 269 247 232 323 274 246 215 219 233 240 166 178 202 215 223 223 218 216 218 219 217 214 214 216 218 219 219 222 226 229
197 187 258 267 211 279 167 225 259 295 269 186 208 215 310 83 218 258 207 209 229 206 223 221 175 211 210 199 222 217 216 217 220 218 215 216 217 217 220 220 220 223 227
176 185 210 261 314 303 307 222 223 243 278 309 283 323 323 329 332 315 224 222 220 93 47 357 215 239 211 189 206 209 214 214 217 216 214 213 214 216 216 219 222 221 224
180 195 203 197 230 261 298 280 247 240 282 292 327 35 64 255 92 341 310 19 90 196 116 281 288 284 179 220 197 204 201 205 214 218 215 214 213 214 216 217 220 219 221
259 238 301 312 256 236 252 259 288 273 259 268 286 301 319 322 212 186 276 281 56 311 325 334 330 277 216 218 216 189 187 196 200 208 215 215 216 217 218 219 219 219 221
8 354 3 333 334 307 308 282 264 274 256 268 274 281 257 233 252 219 235 285 288 201 250 218 244 328 343 234 288 147 175 187 194 199 205 213 216 220 224 224 223 222 223
9 28 7 0 1 321 294 298 281 273 275 261 254 255 247 225 253 256 258 268 286 310 214 213 166 94 341 16 10 325 172 179 186 193 198 205 212 217 223 230 231 225 224
30 25 3 6 358 348 336 303 278 250 245 263 263 256 265 270 227 229 236 240 285 273 303 290 139 199 119 208 26 334 298 186 191 194 196 201 209 215 222 228 227 222 223
359 4 358 350 343 337 339 329 304 319 310 299 280 272 256 262 273 270 244 208 201 263 281 261 255 117 156 162 129 238 272 199 204 205 205 204 211 215 221 218 221 220 217
5 352 337 334 330 333 326 324 321 323 330 302 286 283 273 263 260 275 249 237 217 212 255 227 279 178 192 249 208 214 259 158 196 219 215 216 217 215 214 212 214 219 217
350 332 332 332 330 324 321 330 320 301 295 314 305 295 290 279 271 271 283 247 232 220 239 269 270 201 196 208 269 264 260 258 214 214 213 209 209 214 216 214 216 215 215
343 330 326 328 328 330 325 322 319 319 313 308 304 310 300 289 283 273 274 268 246 246 230 259 258 280 268 209 241 249 249 249 245 237 216 221 215 212 214 213 215 218 219
338 324 336 328 312 302 301 300 302 319 333 326 324 325 321 323 298 290 281 280 271 260 251 249 268 246 250 245 269 260 240 252 263 269 201 212 225 223 222 224 217 218 215
326 341 338 318 338 329 40 17 351 338 323 316 315 310 311 303 304 293 284 280 282 284 267 248 261 267 259 240 249 259 279 256 259 276 281 212 232 221 219 223 223 226 220
342 349 346 344 10 355 29 15 354 327 316 310 304 299 294 302 303 291 265 269 272 283 285 287 272 273 269 269 255 276 272 274 273 241 252 105 265 253 228 237 238 227 222
343 4 349 1 12 347 22 13 350 320 308 303 295 297 304 302 287 341 292 268 275 273 271 266 271 268 281 290 286 265 270 270 294 211 232 171 199 246 274 290 299 263 236
351 344 326 320 306 76 43 8 334 304 287 283 287 277 273 294 324 336 353 322 275 253 238 260 265 263 275 271 277 283 275 258 252 270 302 273 170 208 223 251 290 283 241
313 285 318 9 16 84 47 1 338 316 298 306 317 327 302 289 35 352 324 322 308 291 253 233 242 265 269 270 253 249 262 272 279 271 239 253 244 247 193 228 230 241 224
339 331 358 3 50 81 69 11 344 334 350 347 332 25 19 20 5 5 336 309 297 297 309 348 280 274 270 257 242 270 265 263 269 260 243 221 260 272 290 298 279 197 206
317 322 318 313 250 239 124 46 9 351 354 344 323 352 62 30 3 357 334 324 313 347 339 326 295 270 261 265 245 236 290 336 329 329 342 25 346 5 313 269 302 140 234